| time (UTC) | temp F | wind direction | speed MPH | gust MPH | rain 1hr in | rain 24hr in | rain mn in | humidity % | barometer mb |
| 20260509093512 | 50 | 4 | 0.0 | 0.0 | 0.00 | 0.00 | 0.00 | 90 | 1005.7 |
| 20260509093010 | 50 | 4 | 0.0 | 0.0 | 0.00 | 0.00 | 0.00 | 91 | 1005.8 |
| 20260509092507 | 50 | 3 | 0.0 | 0.0 | 0.00 | 0.00 | 0.00 | 91 | 1005.6 |
| 20260509092006 | 50 | 4 | 0.0 | 0.0 | 0.00 | 0.00 | 0.00 | 91 | 1005.8 |
| 20260509091503 | 50 | 4 | 0.0 | 0.0 | 0.00 | 0.00 | 0.00 | 91 | 1006.0 |
| 20260509090959 | 50 | 4 | 0.0 | 0.0 | 0.00 | 0.00 | 0.00 | 91 | 1005.8 |
| 20260509090456 | 50 | 4 | 0.0 | 0.0 | 0.00 | 0.00 | 0.00 | 92 | 1005.9 |
| 20260509085954 | 50 | 4 | 0.0 | 0.0 | 0.00 | 0.00 | 0.00 | 92 | 1005.9 |
| 20260509085451 | 50 | 4 | 0.0 | 0.0 | 0.00 | 0.00 | 0.00 | 91 | 1005.9 |
| 20260509084947 | 50 | 4 | 0.0 | 0.0 | 0.00 | 0.00 | 0.00 | 93 | 1006.1 |
| 20260509084444 | 50 | 4 | 0.0 | 0.0 | 0.00 | 0.00 | 0.00 | 92 | 1005.8 |
| 20260509083941 | 50 | 4 | 0.0 | 0.0 | 0.00 | 0.00 | 0.00 | 91 | 1005.7 |
| 20260509083439 | 49 | 4 | 0.0 | 0.0 | 0.00 | 0.00 | 0.00 | 90 | 1005.8 |
| 20260509082935 | 49 | 4 | 0.0 | 0.0 | 0.00 | 0.00 | 0.00 | 92 | 1006.0 |
| 20260509082432 | 49 | 4 | 0.0 | 0.0 | 0.00 | 0.00 | 0.00 | 92 | 1006.0 |
| 20260509081929 | 49 | 4 | 0.0 | 0.0 | 0.00 | 0.00 | 0.00 | 92 | 1005.9 |
| 20260509081427 | 49 | 4 | 0.0 | 0.0 | 0.00 | 0.00 | 0.00 | 92 | 1006.0 |
| 20260509080924 | 49 | 4 | 0.0 | 0.0 | 0.00 | 0.00 | 0.00 | 92 | 1006.1 |
| 20260509080422 | 49 | 4 | 0.0 | 0.0 | 0.00 | 0.00 | 0.00 | 91 | 1005.9 |
| 20260509075920 | 49 | 4 | 0.0 | 0.0 | 0.00 | 0.00 | 0.00 | 91 | 1006.2 |
| 20260509075416 | 48 | 4 | 0.0 | 0.0 | 0.00 | 0.00 | 0.00 | 91 | 1006.0 |
| 20260509074914 | 48 | 4 | 0.0 | 0.0 | 0.00 | 0.00 | 0.00 | 91 | 1006.3 |
| 20260509074412 | 48 | 4 | 0.0 | 0.0 | 0.00 | 0.00 | 0.00 | 91 | 1006.3 |
| 20260509073908 | 48 | 4 | 0.0 | 0.0 | 0.00 | 0.00 | 0.00 | 92 | 1006.2 |
| 20260509073404 | 48 | 4 | 0.0 | 0.0 | 0.00 | 0.00 | 0.00 | 92 | 1006.3 |
| 20260509072901 | 48 | 4 | 0.0 | 0.0 | 0.00 | 0.00 | 0.00 | 92 | 1006.2 |
| 20260509072357 | 48 | 4 | 0.0 | 0.0 | 0.00 | 0.00 | 0.00 | 93 | 1006.2 |
| 20260509071854 | 48 | 4 | 0.0 | 0.0 | 0.00 | 0.00 | 0.00 | 92 | 1006.3 |
| 20260509071351 | 47 | 4 | 0.0 | 0.0 | 0.00 | 0.00 | 0.00 | 92 | 1006.4 |
| 20260509070848 | 47 | 4 | 0.0 | 0.0 | 0.00 | 0.00 | 0.00 | 92 | 1006.5 |
| 20260509070345 | 47 | 3 | 0.0 | 0.0 | 0.00 | 0.00 | 0.00 | 92 | 1006.4 |
| 20260509065841 | 47 | 3 | 0.0 | 0.0 | 0.00 | 0.00 | 0.00 | 93 | 1006.4 |
| 20260509065337 | 46 | 3 | 0.0 | 0.0 | 0.00 | 0.00 | 0.00 | 93 | 1006.5 |
| 20260509064833 | 46 | 3 | 0.0 | 0.0 | 0.00 | 0.00 | 0.00 | 93 | 1006.3 |
| 20260509064331 | 46 | 3 | 0.0 | 0.0 | 0.00 | 0.00 | 0.00 | 93 | 1006.6 |
| 20260509063829 | 46 | 3 | 0.0 | 0.0 | 0.00 | 0.00 | 0.00 | 93 | 1006.5 |
| 20260509063324 | 47 | 3 | 0.0 | 0.0 | 0.00 | 0.00 | 0.00 | 93 | 1006.4 |
| 20260509062822 | 46 | 3 | 0.0 | 0.0 | 0.00 | 0.00 | 0.00 | 93 | 1006.6 |
| 20260509062319 | 46 | 3 | 0.0 | 0.0 | 0.00 | 0.00 | 0.00 | 93 | 1006.5 |
| 20260509061816 | 46 | 3 | 0.0 | 0.0 | 0.00 | 0.00 | 0.00 | 92 | 1006.7 |
| 20260509061314 | 46 | 3 | 0.0 | 0.0 | 0.00 | 0.00 | 0.00 | 92 | 1006.9 |
| 20260509060811 | 46 | 3 | 0.0 | 0.0 | 0.00 | 0.00 | 0.00 | 92 | 1006.8 |
| 20260509060308 | 47 | 4 | 0.0 | 0.0 | 0.00 | 0.00 | 0.00 | 91 | 1006.8 |
| 20260509055803 | 47 | 4 | 0.0 | 0.0 | 0.00 | 0.00 | 0.00 | 91 | 1006.9 |
| 20260509055259 | 47 | 4 | 0.0 | 0.0 | 0.00 | 0.00 | 0.00 | 91 | 1006.9 |
| 20260509054756 | 47 | 4 | 0.0 | 0.0 | 0.00 | 0.00 | 0.00 | 90 | 1007.0 |
| 20260509054252 | 48 | 4 | 0.0 | 0.0 | 0.00 | 0.00 | 0.00 | 90 | 1007.0 |
| 20260509053751 | 48 | 4 | 0.0 | 0.0 | 0.00 | 0.00 | 0.00 | 90 | 1007.0 |
| 20260509053248 | 48 | 4 | 0.0 | 0.0 | 0.00 | 0.00 | 0.00 | 89 | 1007.0 |
| 20260509052746 | 48 | 4 | 0.0 | 0.0 | 0.00 | 0.00 | 0.00 | 88 | 1007.1 |
| 20260509052243 | 48 | 2 | 0.0 | 0.0 | 0.00 | 0.00 | 0.00 | 90 | 1007.1 |
| 20260509051741 | 48 | 4 | 0.0 | 0.0 | 0.00 | 0.00 | 0.00 | 88 | 1007.0 |
| 20260509051239 | 48 | 2 | 0.0 | 0.0 | 0.00 | 0.00 | 0.00 | 89 | 1007.2 |
| 20260509050735 | 48 | 3 | 0.0 | 0.0 | 0.00 | 0.00 | 0.00 | 90 | 1007.1 |
| 20260509050231 | 48 | 4 | 0.0 | 0.0 | 0.00 | 0.00 | 0.00 | 89 | 1007.1 |
| 20260509045729 | 48 | 4 | 0.0 | 0.0 | 0.00 | 0.00 | 0.00 | 89 | 1007.0 |
| 20260509045226 | 48 | 359 | 0.0 | 0.0 | 0.00 | 0.00 | 0.00 | 89 | 1007.0 |
| 20260509044723 | 48 | 358 | 0.0 | 0.0 | 0.00 | 0.00 | 0.00 | 89 | 1006.9 |
| 20260509044221 | 48 | 359 | 0.0 | 0.0 | 0.00 | 0.00 | 0.00 | 90 | 1006.8 |
| 20260509043717 | 47 | 359 | 0.0 | 0.0 | 0.00 | 0.00 | 0.00 | 89 | 1006.8 |
| 20260509043213 | 47 | 359 | 0.0 | 0.0 | 0.00 | 0.00 | 0.00 | 90 | 1007.0 |
| 20260509042709 | 47 | 359 | 0.0 | 0.0 | 0.00 | 0.00 | 0.00 | 90 | 1007.1 |
| 20260509042205 | 47 | 359 | 0.0 | 0.0 | 0.00 | 0.00 | 0.00 | 91 | 1007.0 |
| 20260509041702 | 47 | 359 | 0.0 | 0.0 | 0.00 | 0.00 | 0.00 | 91 | 1007.1 |
| 20260509041200 | 47 | 359 | 0.0 | 0.0 | 0.00 | 0.00 | 0.00 | 90 | 1007.1 |
| 20260509040658 | 47 | 359 | 0.0 | 0.0 | 0.00 | 0.00 | 0.00 | 90 | 1007.2 |
| 20260509040154 | 47 | 359 | 0.0 | 0.0 | 0.00 | 0.00 | 0.00 | 89 | 1007.1 |
| 20260509035651 | 48 | 359 | 0.0 | 0.0 | 0.00 | 0.00 | 0.00 | 90 | 1007.1 |
| 20260509035148 | 48 | 359 | 0.0 | 0.0 | 0.00 | 0.00 | 0.00 | 89 | 1007.0 |
| 20260509034645 | 48 | 359 | 0.0 | 0.0 | 0.00 | 0.00 | 0.00 | 88 | 1007.4 |
| 20260509034142 | 48 | 359 | 0.0 | 0.0 | 0.00 | 0.00 | 0.00 | 86 | 1007.3 |
| 20260509033639 | 49 | 356 | 0.0 | 0.0 | 0.00 | 0.00 | 0.00 | 87 | 1007.1 |
| 20260509033136 | 49 | 9 | 0.0 | 0.0 | 0.00 | 0.00 | 0.00 | 84 | 1007.1 |
| 20260509032634 | 50 | 2 | 0.0 | 0.0 | 0.00 | 0.00 | 0.00 | 84 | 1007.2 |
| 20260509032130 | 50 | 3 | 0.0 | 0.0 | 0.00 | 0.00 | 0.00 | 84 | 1007.3 |
| 20260509031628 | 50 | 311 | 1.0 | 1.0 | 0.00 | 0.00 | 0.00 | 83 | 1007.2 |
| 20260509031125 | 51 | 14 | 0.0 | 1.0 | 0.00 | 0.00 | 0.00 | 84 | 1007.2 |
| 20260509030624 | 51 | 347 | 0.0 | 0.0 | 0.00 | 0.00 | 0.00 | 82 | 1007.2 |
| 20260509030121 | 52 | 359 | 0.0 | 0.0 | 0.00 | 0.00 | 0.00 | 83 | 1007.1 |
| 20260509025616 | 52 | 355 | 0.0 | 0.0 | 0.00 | 0.00 | 0.00 | 81 | 1007.3 |
| 20260509025112 | 52 | 12 | 0.0 | 0.0 | 0.00 | 0.00 | 0.00 | 83 | 1007.2 |
| 20260509024608 | 52 | 340 | 1.0 | 1.0 | 0.00 | 0.00 | 0.00 | 84 | 1007.3 |
| 20260509024104 | 52 | 12 | 0.0 | 0.0 | 0.00 | 0.00 | 0.00 | 83 | 1007.4 |
| 20260509023602 | 52 | 12 | 0.0 | 0.0 | 0.00 | 0.00 | 0.00 | 84 | 1007.5 |
| 20260509023059 | 52 | 12 | 0.0 | 0.0 | 0.00 | 0.00 | 0.00 | 85 | 1007.8 |
| 20260509022555 | 52 | 14 | 0.0 | 0.0 | 0.00 | 0.00 | 0.00 | 84 | 1007.5 |
| 20260509022053 | 51 | 4 | 0.0 | 0.0 | 0.00 | 0.00 | 0.00 | 84 | 1007.9 |
| 20260509021550 | 51 | 4 | 0.0 | 0.0 | 0.00 | 0.00 | 0.00 | 85 | 1007.4 |
| 20260509021047 | 51 | 4 | 0.0 | 0.0 | 0.00 | 0.00 | 0.00 | 84 | 1007.4 |
| 20260509020545 | 51 | 4 | 0.0 | 0.0 | 0.00 | 0.00 | 0.00 | 84 | 1007.4 |
| 20260509020041 | 51 | 4 | 0.0 | 0.0 | 0.00 | 0.00 | 0.00 | 84 | 1007.6 |
| 20260509015541 | 51 | 4 | 0.0 | 0.0 | 0.00 | 0.00 | 0.00 | 84 | 1007.6 |
| 20260509015038 | 51 | 2 | 0.0 | 0.0 | 0.00 | 0.00 | 0.00 | 84 | 1007.5 |
| 20260509014534 | 51 | 3 | 0.0 | 0.0 | 0.00 | 0.00 | 0.00 | 85 | 1007.4 |
| 20260509014030 | 51 | 3 | 0.0 | 0.0 | 0.00 | 0.00 | 0.00 | 82 | 1007.5 |
| 20260509013528 | 50 | 3 | 0.0 | 0.0 | 0.00 | 0.00 | 0.00 | 84 | 1007.2 |
| 20260509013023 | 50 | 2 | 0.0 | 0.0 | 0.00 | 0.00 | 0.00 | 84 | 1007.5 |
| 20260509012520 | 50 | 3 | 0.0 | 0.0 | 0.00 | 0.00 | 0.00 | 85 | 1007.3 |
| 20260509012017 | 50 | 3 | 0.0 | 0.0 | 0.00 | 0.00 | 0.00 | 84 | 1007.2 |
| 20260509011515 | 50 | 3 | 0.0 | 0.0 | 0.00 | 0.00 | 0.00 | 82 | 1007.2 |
| 20260509011012 | 51 | 3 | 0.0 | 0.0 | 0.00 | 0.00 | 0.00 | 81 | 1007.2 |
| 20260509010510 | 51 | 4 | 0.0 | 0.0 | 0.00 | 0.00 | 0.00 | 79 | 1007.3 |
| 20260509010006 | 50 | 3 | 0.0 | 0.0 | 0.00 | 0.00 | 0.00 | 81 | 1007.5 |
| 20260509005504 | 50 | 2 | 0.0 | 0.0 | 0.00 | 0.00 | 0.00 | 82 | 1007.4 |
| 20260509005003 | 50 | 2 | 0.0 | 0.0 | 0.00 | 0.00 | 0.00 | 82 | 1007.1 |
| 20260509004500 | 51 | 2 | 0.0 | 0.0 | 0.00 | 0.00 | 0.00 | 82 | 1007.2 |
| 20260509003958 | 51 | 2 | 0.0 | 0.0 | 0.00 | 0.00 | 0.00 | 80 | 1007.1 |
| 20260509003456 | 51 | 2 | 0.0 | 0.0 | 0.00 | 0.00 | 0.00 | 79 | 1007.1 |
| 20260509002953 | 51 | 2 | 0.0 | 0.0 | 0.00 | 0.00 | 0.00 | 81 | 1007.4 |
| 20260509002450 | 52 | 2 | 0.0 | 0.0 | 0.00 | 0.00 | 0.00 | 81 | 1007.3 |
| 20260509001947 | 52 | 2 | 0.0 | 0.0 | 0.00 | 0.00 | 0.00 | 78 | 1007.2 |
| 20260509001443 | 53 | 2 | 0.0 | 0.0 | 0.00 | 0.00 | 0.00 | 78 | 1007.2 |
| 20260509000940 | 54 | 2 | 0.0 | 0.0 | 0.00 | 0.00 | 0.00 | 76 | 1007.0 |
| 20260509000440 | 55 | 5 | 0.0 | 0.0 | 0.00 | 0.00 | 0.00 | 74 | 1007.1 |
| 20260508235934 | 56 | 6 | 0.0 | 0.0 | 0.00 | 0.00 | 0.00 | 72 | 1007.0 |
| 20260508235432 | 56 | 0 | 0.0 | 0.0 | 0.00 | 0.00 | 0.00 | 70 | 1006.8 |
| 20260508234928 | 57 | 352 | 0.0 | 0.0 | 0.00 | 0.00 | 0.00 | 68 | 1006.8 |
| 20260508234426 | 58 | 349 | 0.0 | 0.0 | 0.00 | 0.00 | 0.00 | 65 | 1006.6 |
| 20260508233923 | 59 | 356 | 0.0 | 0.0 | 0.00 | 0.00 | 0.00 | 65 | 1006.7 |
| 20260508233422 | 60 | 5 | 0.0 | 0.0 | 0.00 | 0.00 | 0.00 | 62 | 1006.8 |
| 20260508232919 | 61 | 350 | 0.0 | 0.0 | 0.00 | 0.00 | 0.00 | 60 | 1006.7 |
| 20260508232416 | 62 | 358 | 0.0 | 0.0 | 0.00 | 0.00 | 0.00 | 54 | 1006.5 |
| 20260508231913 | 63 | 354 | 0.0 | 0.0 | 0.00 | 0.00 | 0.00 | 51 | 1006.5 |
| 20260508231410 | 65 | 357 | 0.0 | 0.0 | 0.00 | 0.00 | 0.00 | 51 | 1006.6 |
| 20260508230907 | 66 | 358 | 0.0 | 0.0 | 0.00 | 0.00 | 0.00 | 47 | 1006.7 |
| 20260508230404 | 66 | 358 | 0.0 | 0.0 | 0.00 | 0.00 | 0.00 | 42 | 1006.6 |
| 20260508225901 | 67 | 352 | 0.0 | 0.0 | 0.00 | 0.00 | 0.00 | 41 | 1006.5 |
| 20260508225358 | 67 | 353 | 0.0 | 0.0 | 0.00 | 0.00 | 0.00 | 41 | 1006.7 |
| 20260508224855 | 66 | 317 | 2.0 | 2.0 | 0.00 | 0.00 | 0.00 | 40 | 1006.4 |
| 20260508224353 | 67 | 350 | 0.0 | 1.0 | 0.00 | 0.00 | 0.00 | 38 | 1006.5 |
| 20260508223850 | 67 | 354 | 0.0 | 0.0 | 0.00 | 0.00 | 0.00 | 38 | 1006.6 |
| 20260508223347 | 67 | 2 | 0.0 | 0.0 | 0.00 | 0.00 | 0.00 | 40 | 1006.6 |
| 20260508222844 | 67 | 347 | 1.0 | 1.0 | 0.00 | 0.00 | 0.00 | 41 | 1006.5 |
| 20260508222342 | 68 | 44 | 1.0 | 1.0 | 0.00 | 0.00 | 0.00 | 38 | 1006.7 |
| 20260508221838 | 67 | 350 | 0.0 | 0.0 | 0.00 | 0.00 | 0.00 | 38 | 1006.8 |
| 20260508221334 | 67 | 351 | 0.0 | 0.0 | 0.00 | 0.00 | 0.00 | 40 | 1006.7 |
| 20260508220830 | 67 | 328 | 1.0 | 1.0 | 0.00 | 0.00 | 0.00 | 39 | 1006.6 |
| 20260508220327 | 68 | 0 | 1.0 | 1.0 | 0.00 | 0.00 | 0.00 | 41 | 1006.9 |
| 20260508215823 | 68 | 0 | 0.0 | 0.0 | 0.00 | 0.00 | 0.00 | 37 | 1006.7 |
| 20260508215320 | 67 | 6 | 0.0 | 0.0 | 0.00 | 0.00 | 0.00 | 38 | 1006.5 |
| 20260508214817 | 68 | 347 | 2.0 | 2.0 | 0.00 | 0.00 | 0.00 | 37 | 1006.6 |
| 20260508214314 | 68 | 289 | 3.0 | 3.0 | 0.00 | 0.00 | 0.00 | 38 | 1006.6 |
| 20260508213811 | 67 | 232 | 0.0 | 1.0 | 0.00 | 0.00 | 0.00 | 35 | 1006.8 |
| 20260508213308 | 68 | 292 | 2.0 | 2.0 | 0.00 | 0.00 | 0.00 | 36 | 1006.7 |
| 20260508212804 | 68 | 7 | 2.0 | 2.0 | 0.00 | 0.00 | 0.00 | 35 | 1007.1 |
| 20260508212300 | 68 | 326 | 2.0 | 3.0 | 0.00 | 0.00 | 0.00 | 39 | 1006.9 |
| 20260508211756 | 68 | 331 | 2.0 | 2.0 | 0.00 | 0.00 | 0.00 | 36 | 1006.7 |
| 20260508211252 | 68 | 335 | 2.0 | 2.0 | 0.00 | 0.00 | 0.00 | 35 | 1007.0 |
| 20260508210750 | 66 | 348 | 0.0 | 1.0 | 0.00 | 0.00 | 0.00 | 39 | 1007.0 |
| 20260508210246 | 66 | 324 | 1.0 | 1.0 | 0.00 | 0.00 | 0.00 | 42 | 1007.0 |
| 20260508205743 | 66 | 340 | 4.0 | 6.0 | 0.00 | 0.00 | 0.00 | 38 | 1007.0 |
| 20260508205239 | 67 | 315 | 3.0 | 4.0 | 0.00 | 0.00 | 0.00 | 37 | 1007.0 |
| 20260508204736 | 66 | 304 | 3.0 | 3.0 | 0.00 | 0.00 | 0.00 | 38 | 1007.1 |
| 20260508204233 | 65 | 326 | 2.0 | 2.0 | 0.00 | 0.00 | 0.00 | 40 | 1007.1 |
| 20260508203729 | 66 | 298 | 2.0 | 2.0 | 0.00 | 0.00 | 0.00 | 38 | 1007.1 |
| 20260508203225 | 66 | 37 | 1.0 | 1.0 | 0.00 | 0.00 | 0.00 | 40 | 1007.1 |
| 20260508202716 | 66 | 323 | 0.0 | 1.0 | 0.00 | 0.00 | 0.00 | 40 | 1007.3 |
| 20260508202213 | 66 | 243 | 1.0 | 2.0 | 0.00 | 0.00 | 0.00 | 38 | 1007.4 |
| 20260508201710 | 65 | 255 | 1.0 | 2.0 | 0.00 | 0.00 | 0.00 | 37 | 1007.4 |
| 20260508201207 | 65 | 306 | 2.0 | 2.0 | 0.00 | 0.00 | 0.00 | 41 | 1007.5 |
| 20260508200704 | 65 | 6 | 1.0 | 2.0 | 0.00 | 0.00 | 0.00 | 39 | 1007.4 |
| 20260508200159 | 66 | 284 | 1.0 | 2.0 | 0.00 | 0.00 | 0.00 | 38 | 1007.5 |
| 20260508195656 | 66 | 0 | 0.0 | 1.0 | 0.00 | 0.00 | 0.00 | 36 | 1007.4 |
| 20260508195153 | 66 | 359 | 0.0 | 1.0 | 0.00 | 0.00 | 0.00 | 37 | 1007.8 |
| 20260508194649 | 66 | 274 | 1.0 | 2.0 | 0.00 | 0.00 | 0.00 | 36 | 1007.6 |
| 20260508194146 | 66 | 312 | 4.0 | 6.0 | 0.00 | 0.00 | 0.00 | 38 | 1008.0 |
| 20260508193643 | 66 | 350 | 0.0 | 1.0 | 0.00 | 0.00 | 0.00 | 38 | 1007.8 |
| 20260508193140 | 65 | 357 | 0.0 | 1.0 | 0.00 | 0.00 | 0.00 | 38 | 1007.8 |
| 20260508192636 | 65 | 281 | 1.0 | 2.0 | 0.00 | 0.00 | 0.00 | 37 | 1007.9 |
| 20260508192134 | 65 | 337 | 1.0 | 1.0 | 0.00 | 0.00 | 0.00 | 38 | 1007.9 |
| 20260508191630 | 65 | 348 | 1.0 | 2.0 | 0.00 | 0.00 | 0.00 | 37 | 1008.1 |
| 20260508191127 | 65 | 307 | 2.0 | 2.0 | 0.00 | 0.00 | 0.00 | 36 | 1008.3 |
| 20260508190625 | 66 | 304 | 0.0 | 1.0 | 0.00 | 0.00 | 0.00 | 38 | 1008.1 |
| 20260508190120 | 66 | 326 | 1.0 | 1.0 | 0.00 | 0.00 | 0.00 | 38 | 1008.2 |
| 20260508185617 | 67 | 202 | 3.0 | 4.0 | 0.00 | 0.00 | 0.00 | 36 | 1008.2 |
| 20260508185115 | 66 | 344 | 1.0 | 2.0 | 0.00 | 0.00 | 0.00 | 36 | 1008.1 |
| 20260508184612 | 66 | 339 | 2.0 | 2.0 | 0.00 | 0.00 | 0.00 | 34 | 1008.4 |
| 20260508184109 | 66 | 8 | 3.0 | 4.0 | 0.00 | 0.00 | 0.00 | 35 | 1008.3 |
| 20260508183605 | 66 | 326 | 3.0 | 4.0 | 0.00 | 0.00 | 0.00 | 35 | 1008.4 |
| 20260508183101 | 67 | 317 | 0.0 | 1.0 | 0.00 | 0.00 | 0.00 | 33 | 1008.4 |
| 20260508182558 | 67 | 303 | 4.0 | 4.0 | 0.00 | 0.00 | 0.00 | 32 | 1008.4 |
| 20260508182055 | 66 | 341 | 1.0 | 1.0 | 0.00 | 0.00 | 0.00 | 33 | 1008.5 |
| 20260508181555 | 66 | 15 | 0.0 | 1.0 | 0.00 | 0.00 | 0.00 | 33 | 1008.6 |
| 20260508181053 | 67 | 205 | 4.0 | 6.0 | 0.00 | 0.00 | 0.00 | 34 | 1008.4 |
| 20260508180550 | 68 | 5 | 1.0 | 1.0 | 0.00 | 0.00 | 0.00 | 40 | 1008.9 |
| 20260508180046 | 67 | 280 | 2.0 | 3.0 | 0.00 | 0.00 | 0.00 | 35 | 1008.6 |
| 20260508175543 | 67 | 297 | 3.0 | 3.0 | 0.00 | 0.00 | 0.00 | 37 | 1008.7 |
| 20260508175040 | 67 | 310 | 2.0 | 3.0 | 0.00 | 0.00 | 0.00 | 35 | 1008.8 |
| 20260508174538 | 66 | 353 | 0.0 | 0.0 | 0.00 | 0.00 | 0.00 | 41 | 1009.0 |
| 20260508174034 | 66 | 320 | 3.0 | 3.0 | 0.00 | 0.00 | 0.00 | 35 | 1009.0 |
| 20260508173531 | 65 | 0 | 6.0 | 8.0 | 0.00 | 0.00 | 0.00 | 34 | 1008.9 |
| 20260508173027 | 67 | 335 | 2.0 | 3.0 | 0.00 | 0.00 | 0.00 | 33 | 1009.2 |
| 20260508172524 | 67 | 41 | 0.0 | 1.0 | 0.00 | 0.00 | 0.00 | 36 | 1009.1 |
| 20260508172021 | 65 | 341 | 0.0 | 1.0 | 0.00 | 0.00 | 0.00 | 39 | 1009.0 |
| 20260508171518 | 66 | 209 | 3.0 | 4.0 | 0.00 | 0.00 | 0.00 | 36 | 1009.2 |
| 20260508171014 | 66 | 12 | 2.0 | 2.0 | 0.00 | 0.00 | 0.00 | 32 | 1009.5 |
| 20260508170512 | 65 | 18 | 3.0 | 3.0 | 0.00 | 0.00 | 0.00 | 37 | 1009.2 |
| 20260508170009 | 65 | 319 | 2.0 | 3.0 | 0.00 | 0.00 | 0.00 | 43 | 1009.3 |
| 20260508165506 | 66 | 237 | 3.0 | 3.0 | 0.00 | 0.00 | 0.00 | 36 | 1009.4 |
| 20260508165002 | 66 | 331 | 4.0 | 4.0 | 0.00 | 0.00 | 0.00 | 34 | 1009.4 |
| 20260508164459 | 65 | 287 | 2.0 | 2.0 | 0.00 | 0.00 | 0.00 | 38 | 1009.5 |
| 20260508163956 | 66 | 34 | 3.0 | 3.0 | 0.00 | 0.00 | 0.00 | 33 | 1009.7 |
| 20260508163454 | 64 | 244 | 1.0 | 1.0 | 0.00 | 0.00 | 0.00 | 36 | 1009.7 |
| 20260508162949 | 64 | 36 | 1.0 | 2.0 | 0.00 | 0.00 | 0.00 | 36 | 1009.7 |
| 20260508162447 | 64 | 314 | 4.0 | 4.0 | 0.00 | 0.00 | 0.00 | 39 | 1009.8 |
| 20260508161944 | 64 | 240 | 2.0 | 3.0 | 0.00 | 0.00 | 0.00 | 37 | 1010.1 |
| 20260508161441 | 64 | 331 | 2.0 | 3.0 | 0.00 | 0.00 | 0.00 | 44 | 1010.0 |
| 20260508160938 | 63 | 212 | 1.0 | 2.0 | 0.00 | 0.00 | 0.00 | 39 | 1009.9 |
| 20260508160437 | 63 | 340 | 2.0 | 2.0 | 0.00 | 0.00 | 0.00 | 41 | 1010.0 |
| 20260508155932 | 62 | 351 | 4.0 | 4.0 | 0.00 | 0.00 | 0.00 | 40 | 1010.0 |
| 20260508155430 | 63 | 314 | 4.0 | 4.0 | 0.00 | 0.00 | 0.00 | 39 | 1010.0 |
| 20260508154926 | 61 | 337 | 1.0 | 1.0 | 0.00 | 0.00 | 0.00 | 45 | 1010.1 |
| 20260508154424 | 62 | 340 | 1.0 | 1.0 | 0.00 | 0.00 | 0.00 | 39 | 1010.1 |
| 20260508153921 | 62 | 0 | 1.0 | 1.0 | 0.00 | 0.00 | 0.00 | 42 | 1010.1 |
| 20260508153418 | 60 | 227 | 1.0 | 2.0 | 0.00 | 0.00 | 0.00 | 43 | 1010.3 |
| 20260508152914 | 60 | 334 | 2.0 | 3.0 | 0.00 | 0.00 | 0.00 | 42 | 1010.3 |
| 20260508152411 | 60 | 200 | 2.0 | 2.0 | 0.00 | 0.00 | 0.00 | 43 | 1010.3 |
| 20260508151907 | 62 | 7 | 4.0 | 4.0 | 0.00 | 0.00 | 0.00 | 42 | 1010.4 |
| 20260508151404 | 64 | 275 | 2.0 | 3.0 | 0.00 | 0.00 | 0.00 | 39 | 1010.4 |
| 20260508150900 | 63 | 22 | 2.0 | 2.0 | 0.00 | 0.00 | 0.00 | 42 | 1010.1 |
| 20260508150357 | 62 | 314 | 1.0 | 2.0 | 0.00 | 0.00 | 0.00 | 41 | 1010.2 |
| 20260508145853 | 63 | 340 | 4.0 | 6.0 | 0.00 | 0.00 | 0.00 | 39 | 1010.4 |
| 20260508145349 | 62 | 313 | 1.0 | 2.0 | 0.00 | 0.00 | 0.00 | 44 | 1010.5 |
| 20260508144846 | 63 | 286 | 4.0 | 4.0 | 0.00 | 0.00 | 0.00 | 39 | 1010.5 |
| 20260508144344 | 62 | 3 | 1.0 | 1.0 | 0.00 | 0.00 | 0.00 | 41 | 1010.6 |
| 20260508143841 | 62 | 307 | 2.0 | 2.0 | 0.00 | 0.00 | 0.00 | 43 | 1010.4 |
| 20260508143338 | 62 | 314 | 3.0 | 4.0 | 0.00 | 0.00 | 0.00 | 38 | 1010.6 |
| 20260508142835 | 61 | 302 | 3.0 | 4.0 | 0.00 | 0.00 | 0.00 | 42 | 1010.5 |
| 20260508142332 | 61 | 266 | 2.0 | 2.0 | 0.00 | 0.00 | 0.00 | 42 | 1010.5 |
| 20260508141828 | 61 | 337 | 1.0 | 2.0 | 0.00 | 0.00 | 0.00 | 41 | 1010.8 |
| 20260508141325 | 61 | 41 | 2.0 | 2.0 | 0.00 | 0.00 | 0.00 | 45 | 1010.6 |
| 20260508140823 | 61 | 351 | 1.0 | 2.0 | 0.00 | 0.00 | 0.00 | 40 | 1010.6 |
| 20260508140320 | 60 | 85 | 2.0 | 3.0 | 0.00 | 0.00 | 0.00 | 40 | 1010.6 |
| 20260508135815 | 60 | 69 | 0.0 | 1.0 | 0.00 | 0.00 | 0.00 | 39 | 1010.6 |
| 20260508135312 | 60 | 357 | 0.0 | 1.0 | 0.00 | 0.00 | 0.00 | 41 | 1010.9 |
| 20260508134808 | 59 | 350 | 2.0 | 2.0 | 0.00 | 0.00 | 0.00 | 43 | 1010.8 |
| 20260508134305 | 59 | 358 | 0.0 | 1.0 | 0.00 | 0.00 | 0.00 | 44 | 1010.6 |
| 20260508133802 | 59 | 65 | 2.0 | 3.0 | 0.00 | 0.00 | 0.00 | 43 | 1010.6 |
| 20260508133259 | 59 | 76 | 2.0 | 4.0 | 0.00 | 0.00 | 0.00 | 42 | 1010.9 |
| 20260508132757 | 58 | 349 | 2.0 | 3.0 | 0.00 | 0.00 | 0.00 | 43 | 1010.6 |
| 20260508132254 | 56 | 329 | 2.0 | 2.0 | 0.00 | 0.00 | 0.00 | 50 | 1010.8 |
| 20260508131750 | 56 | 31 | 1.0 | 1.0 | 0.00 | 0.00 | 0.00 | 47 | 1010.9 |
| 20260508131246 | 56 | 0 | 1.0 | 1.0 | 0.00 | 0.00 | 0.00 | 47 | 1011.0 |
| 20260508130743 | 56 | 35 | 2.0 | 3.0 | 0.00 | 0.00 | 0.00 | 45 | 1010.9 |
| 20260508130240 | 57 | 297 | 4.0 | 4.0 | 0.00 | 0.00 | 0.00 | 44 | 1010.9 |
| 20260508125736 | 57 | 31 | 1.0 | 2.0 | 0.00 | 0.00 | 0.00 | 45 | 1010.8 |
| 20260508125232 | 57 | 3 | 1.0 | 2.0 | 0.00 | 0.00 | 0.00 | 46 | 1010.8 |
| 20260508124731 | 56 | 40 | 1.0 | 2.0 | 0.00 | 0.00 | 0.00 | 47 | 1010.9 |
| 20260508124227 | 55 | 27 | 0.0 | 1.0 | 0.00 | 0.00 | 0.00 | 51 | 1010.9 |
| 20260508123726 | 54 | 355 | 0.0 | 0.0 | 0.00 | 0.00 | 0.00 | 56 | 1011.2 |
| 20260508123223 | 53 | 35 | 1.0 | 2.0 | 0.00 | 0.00 | 0.00 | 56 | 1010.9 |
| 20260508122719 | 51 | 7 | 0.0 | 1.0 | 0.00 | 0.00 | 0.00 | 61 | 1011.1 |
| 20260508122216 | 50 | 4 | 0.0 | 0.0 | 0.00 | 0.00 | 0.00 | 61 | 1011.0 |
| 20260508121714 | 50 | 57 | 0.0 | 1.0 | 0.00 | 0.00 | 0.00 | 64 | 1011.1 |
| 20260508121212 | 49 | 35 | 0.0 | 1.0 | 0.00 | 0.00 | 0.00 | 70 | 1011.2 |
| 20260508120709 | 47 | 15 | 0.0 | 0.0 | 0.00 | 0.00 | 0.00 | 76 | 1011.2 |
| 20260508120207 | 45 | 6 | 0.0 | 0.0 | 0.00 | 0.00 | 0.00 | 83 | 1011.1 |
| 20260508115705 | 44 | 9 | 0.0 | 0.0 | 0.00 | 0.00 | 0.00 | 84 | 1011.3 |
| 20260508115201 | 42 | 4 | 0.0 | 0.0 | 0.00 | 0.00 | 0.00 | 86 | 1011.3 |
| 20260508114658 | 41 | 3 | 0.0 | 0.0 | 0.00 | 0.00 | 0.00 | 87 | 1011.0 |
| 20260508114155 | 40 | 6 | 0.0 | 0.0 | 0.00 | 0.00 | 0.00 | 89 | 1011.2 |
| 20260508113652 | 39 | 6 | 0.0 | 0.0 | 0.00 | 0.00 | 0.00 | 91 | 1011.0 |
| 20260508113150 | 38 | 353 | 0.0 | 0.0 | 0.00 | 0.00 | 0.00 | 93 | 1010.8 |
| 20260508112646 | 37 | 357 | 0.0 | 0.0 | 0.00 | 0.00 | 0.00 | 98 | 1010.8 |
| 20260508112143 | 36 | 14 | 0.0 | 0.0 | 0.00 | 0.00 | 0.00 | 99 | 1011.1 |
| 20260508111639 | 35 | 6 | 0.0 | 0.0 | 0.00 | 0.00 | 0.00 | 99 | 1011.0 |
| 20260508111137 | 34 | 5 | 0.0 | 0.0 | 0.00 | 0.00 | 0.00 | 98 | 1010.9 |
| 20260508110635 | 34 | 5 | 0.0 | 0.0 | 0.00 | 0.00 | 0.00 | 98 | 1010.8 |
| 20260508110131 | 33 | 5 | 0.0 | 0.0 | 0.00 | 0.00 | 0.00 | 98 | 1010.6 |
| 20260508105626 | 33 | 5 | 0.0 | 0.0 | 0.00 | 0.00 | 0.00 | 98 | 1010.6 |
| 20260508105123 | 33 | 5 | 0.0 | 0.0 | 0.00 | 0.00 | 0.00 | 98 | 1010.6 |
| 20260508104621 | 33 | 5 | 0.0 | 0.0 | 0.00 | 0.00 | 0.00 | 98 | 1010.6 |
| 20260508104117 | 32 | 5 | 0.0 | 0.0 | 0.00 | 0.00 | 0.00 | 98 | 1010.4 |
| 20260508103614 | 32 | 5 | 0.0 | 0.0 | 0.00 | 0.00 | 0.00 | 98 | 1010.5 |
| 20260508103112 | 32 | 4 | 0.0 | 0.0 | 0.00 | 0.00 | 0.00 | 98 | 1010.2 |
| 20260508102609 | 32 | 4 | 0.0 | 0.0 | 0.00 | 0.00 | 0.00 | 98 | 1010.4 |
| 20260508102107 | 32 | 4 | 0.0 | 0.0 | 0.00 | 0.00 | 0.00 | 98 | 1010.1 |
| 20260508101604 | 32 | 4 | 0.0 | 0.0 | 0.00 | 0.00 | 0.00 | 98 | 1010.2 |
| 20260508101101 | 32 | 7 | 0.0 | 0.0 | 0.00 | 0.00 | 0.00 | 98 | 1010.2 |
| 20260508100559 | 32 | 0 | 0.0 | 0.0 | 0.00 | 0.00 | 0.00 | 97 | 1010.0 |
| 20260508100055 | 32 | 1 | 0.0 | 0.0 | 0.00 | 0.00 | 0.00 | 97 | 1010.1 |
| 20260508095553 | 32 | 1 | 0.0 | 0.0 | 0.00 | 0.00 | 0.00 | 97 | 1009.8 |
| 20260508095049 | 32 | 1 | 0.0 | 0.0 | 0.00 | 0.00 | 0.00 | 97 | 1010.0 |
| 20260508094547 | 32 | 1 | 0.0 | 0.0 | 0.00 | 0.00 | 0.00 | 97 | 1010.1 |
| 20260508094044 | 32 | 1 | 0.0 | 0.0 | 0.00 | 0.00 | 0.00 | 97 | 1010.3 |